TimeCDT,TemperatureF,Dew PointF,Humidity,Sea Level PressureIn,VisibilityMPH,Wind Direction,Wind SpeedMPH,Gust SpeedMPH,PrecipitationIn,Events,Conditions,WindDirDegrees,DateUTC
12:52 AM,33.1,30.9,92,30.03,5.0,East,3.5,-,N/A,,Clear,100,2013-03-15 05:52:00
1:52 AM,33.1,30.9,92,30.00,4.0,ESE,8.1,-,N/A,,Clear,110,2013-03-15 06:52:00
2:52 AM,34.0,32.0,92,29.99,4.0,ESE,8.1,-,N/A,,Clear,120,2013-03-15 07:52:00
3:52 AM,34.0,33.1,96,29.94,4.0,ESE,10.4,-,N/A,,Clear,110,2013-03-15 08:52:00
4:52 AM,34.0,33.1,96,29.91,5.0,ESE,9.2,-,N/A,,Scattered Clouds,110,2013-03-15 09:52:00
5:52 AM,35.1,33.1,92,29.88,6.0,ESE,6.9,-,N/A,,Mostly Cloudy,120,2013-03-15 10:52:00
6:52 AM,36.0,33.1,89,29.85,6.0,ESE,10.4,-,N/A,,Partly Cloudy,120,2013-03-15 11:52:00
7:52 AM,36.0,33.1,89,29.84,4.0,ESE,10.4,-,N/A,,Clear,110,2013-03-15 12:52:00
8:52 AM,37.0,34.0,89,29.82,5.0,ESE,8.1,-,N/A,,Clear,110,2013-03-15 13:52:00
9:52 AM,39.0,35.1,86,29.83,6.0,SE,6.9,-,N/A,,Clear,130,2013-03-15 14:52:00
10:52 AM,39.9,36.0,86,29.82,7.0,Calm,Calm,-,N/A,,Clear,0,2013-03-15 15:52:00
11:52 AM,45.0,39.0,80,29.81,8.0,North,4.6,-,N/A,,Clear,360,2013-03-15 16:52:00
12:52 PM,46.9,39.0,74,29.82,10.0,NE,5.8,-,N/A,,Clear,40,2013-03-15 17:52:00
1:52 PM,46.9,39.9,77,29.81,10.0,North,8.1,-,N/A,,Clear,360,2013-03-15 18:52:00
2:52 PM,48.9,41.0,74,29.80,10.0,NNE,9.2,-,N/A,,Clear,20,2013-03-15 19:52:00
3:52 PM,50.0,41.0,71,29.78,10.0,North,8.1,-,N/A,,Clear,10,2013-03-15 20:52:00
4:52 PM,48.9,41.0,74,29.79,9.0,NE,6.9,-,N/A,,Clear,50,2013-03-15 21:52:00
5:52 PM,46.9,39.9,77,29.78,8.0,NE,6.9,-,N/A,,Clear,50,2013-03-15 22:52:00
6:52 PM,44.1,39.0,82,29.80,7.0,NE,8.1,-,N/A,,Clear,40,2013-03-15 23:52:00
7:30 PM,42.8,39.2,87,29.80,6.0,NNE,8.1,-,N/A,,Mostly Cloudy,20,2013-03-16 00:30:00
7:52 PM,43.0,37.9,82,29.83,7.0,NNE,6.9,-,N/A,,Overcast,20,2013-03-16 00:52:00
8:52 PM,42.1,37.9,85,29.86,7.0,NNE,4.6,-,N/A,,Overcast,20,2013-03-16 01:52:00
9:05 PM,42.8,37.4,81,29.83,7.0,North,10.4,-,N/A,,Overcast,10,2013-03-16 02:05:00
9:26 PM,41.0,37.4,87,29.84,7.0,North,6.9,-,N/A,,Overcast,350,2013-03-16 02:26:00
9:52 PM,41.0,37.9,89,29.89,7.0,NNW,17.3,-,N/A,,Overcast,340,2013-03-16 02:52:00
10:07 PM,41.0,37.4,87,29.85,7.0,NNW,12.7,-,N/A,,Overcast,340,2013-03-16 03:07:00
10:52 PM,37.9,36.0,93,29.90,6.0,NNW,18.4,-,N/A,,Overcast,330,2013-03-16 03:52:00
11:12 PM,37.4,35.6,93,29.87,4.0,NNW,17.3,-,N/A,,Overcast,330,2013-03-16 04:12:00
11:52 PM,36.0,34.0,93,29.90,7.0,NW,17.3,-,N/A,,Overcast,320,2013-03-16 04:52:00